TimeMST,TemperatureF,Dew PointF,Humidity,Sea Level PressureIn,VisibilityMPH,Wind Direction,Wind SpeedMPH,Gust SpeedMPH,PrecipitationIn,Events,Conditions,WindDirDegrees,DateUTC
12:56 AM,8.1,3.0,80,30.30,5.0,South,3.5,-,N/A,,Haze,190,2013-01-06 07:56:00
1:56 AM,3.9,-2.0,76,30.31,10.0,South,5.8,-,N/A,,Clear,170,2013-01-06 08:56:00
2:56 AM,5.0,-0.0,80,30.28,10.0,SSE,5.8,-,N/A,,Clear,160,2013-01-06 09:56:00
3:56 AM,1.0,-2.9,83,30.30,10.0,Calm,Calm,-,N/A,,Clear,0,2013-01-06 10:56:00
4:56 AM,7.0,1.0,77,30.28,10.0,South,8.1,-,N/A,,Clear,190,2013-01-06 11:56:00
5:56 AM,9.0,3.9,80,30.25,10.0,SSW,3.5,-,N/A,,Clear,200,2013-01-06 12:56:00
6:56 AM,10.9,6.1,81,30.22,10.0,ESE,3.5,-,N/A,,Mostly Cloudy,110,2013-01-06 13:56:00
7:56 AM,14.0,8.1,77,30.21,10.0,North,3.5,-,N/A,,Overcast,350,2013-01-06 14:56:00
8:56 AM,17.1,10.0,74,30.21,10.0,WSW,3.5,-,N/A,,Overcast,240,2013-01-06 15:56:00
9:56 AM,19.0,10.9,71,30.20,10.0,South,4.6,-,N/A,,Overcast,170,2013-01-06 16:56:00
10:56 AM,24.1,15.1,69,30.19,10.0,Calm,Calm,-,N/A,,Overcast,0,2013-01-06 17:56:00
11:56 AM,25.0,16.0,69,30.16,10.0,Calm,Calm,-,N/A,,Overcast,0,2013-01-06 18:56:00
12:56 PM,26.1,17.1,69,30.12,10.0,Calm,Calm,-,N/A,,Mostly Cloudy,0,2013-01-06 19:56:00
1:56 PM,27.0,19.9,75,30.11,10.0,SE,3.5,-,N/A,,Overcast,140,2013-01-06 20:56:00
2:56 PM,28.0,19.9,72,30.09,10.0,Calm,Calm,-,N/A,,Overcast,0,2013-01-06 21:56:00
3:56 PM,28.0,19.0,69,30.12,10.0,Calm,Calm,-,N/A,,Overcast,0,2013-01-06 22:56:00
4:56 PM,26.1,19.0,75,30.11,10.0,SSE,3.5,-,N/A,,Overcast,150,2013-01-06 23:56:00
5:56 PM,24.1,17.1,75,30.11,10.0,South,4.6,-,N/A,,Partly Cloudy,180,2013-01-07 00:56:00
6:56 PM,21.0,16.0,81,30.14,10.0,Calm,Calm,-,N/A,,Overcast,0,2013-01-07 01:56:00
7:56 PM,23.0,17.1,78,30.12,5.0,Calm,Calm,-,N/A,,Haze,0,2013-01-07 02:56:00
8:56 PM,25.0,19.0,78,30.11,10.0,NNE,5.8,-,N/A,,Mostly Cloudy,30,2013-01-07 03:56:00
9:56 PM,19.0,14.0,81,30.14,10.0,SE,3.5,-,N/A,,Mostly Cloudy,140,2013-01-07 04:56:00
10:56 PM,24.1,18.0,77,30.12,9.0,Calm,Calm,-,N/A,,Mostly Cloudy,0,2013-01-07 05:56:00
11:56 PM,21.9,16.0,78,30.13,10.0,Calm,Calm,-,N/A,,Overcast,0,2013-01-07 06:56:00